Wind_Speed
27 27 27 27 27 26 25 24 22 22 22 21 19 17 16 14 13 12 10 9 8 7 6 5 5 4 4 4 4 4 4 3 3 3 3 3 2 2 2 2 2 2 3
33 30 28 28 28 28 27 26 25 25 26 25 24 22 20 19 17 16 14 13 11 10 9 8 7 6 5 4 4 4 3 3 3 2 2 2 1 1 1 1 1 2 3
39 36 34 32 31 29 27 26 27 26 26 27 27 26 25 23 22 20 18 17 15 14 12 11 10 9 8 7 6 5 4 4 3 3 2 2 2 1 1 2 2 3 4
43 41 40 38 36 34 31 29 29 29 27 29 30 29 28 27 26 24 23 21 20 18 16 14 13 12 11 10 9 7 6 6 5 4 4 4 3 3 3 3 3 4 5
42 43 42 42 40 38 36 34 32 31 30 30 31 32 31 31 30 29 27 26 24 22 20 18 17 16 14 13 12 11 10 9 8 7 6 6 6 5 5 5 5 6 6
39 40 42 43 43 41 39 38 36 33 31 30 31 33 34 34 33 31 31 29 27 25 24 22 21 20 18 17 16 15 13 12 11 10 9 9 8 8 8 7 7 7 8
37 39 40 41 43 43 42 41 39 37 34 32 32 31 34 35 36 35 34 32 30 29 27 26 24 23 22 20 19 18 17 16 15 13 12 11 10 10 10 10 9 9 9
37 38 39 41 42 42 43 43 42 40 38 37 35 33 32 33 36 37 36 35 33 32 31 29 27 26 25 23 22 21 20 19 18 17 16 15 14 13 13 12 12 12 12
34 36 38 40 41 41 42 44 45 44 42 41 39 36 33 32 34 37 38 37 36 35 33 31 30 28 27 26 25 24 23 22 21 20 19 18 17 16 16 15 15 15 15
29 32 35 38 40 41 42 43 44 44 44 43 41 40 37 35 34 35 37 38 38 37 36 34 32 31 29 27 26 25 24 24 23 22 21 20 19 18 17 17 17 17 17
24 27 30 34 37 40 41 43 44 44 45 44 43 42 40 39 37 36 35 37 39 38 37 37 35 34 32 30 28 27 26 25 24 23 22 21 20 20 19 18 18 18 18
19 22 25 29 33 36 39 41 43 44 44 45 45 44 43 42 39 38 37 37 38 39 39 39 37 35 33 32 30 29 28 26 25 24 23 22 22 21 20 20 20 19 19
15 18 21 25 29 33 37 40 42 43 44 45 46 46 45 43 42 40 39 39 39 39 39 39 39 37 35 33 31 30 29 27 26 25 24 24 23 22 21 21 20 20 20
13 15 18 21 24 28 32 36 40 42 44 45 46 46 47 46 44 43 41 40 39 40 40 39 39 39 37 35 34 32 31 29 28 27 27 26 25 24 23 22 21 21 21
12 13 14 17 20 23 27 31 35 38 41 43 45 46 47 47 47 45 43 43 42 41 40 40 40 39 39 38 36 34 32 31 30 29 28 27 25 25 24 24 23 23 23
12 13 13 14 16 18 20 24 29 32 36 39 42 45 46 46 48 47 46 44 44 43 42 42 41 42 42 40 39 37 35 34 33 30 29 28 27 26 25 25 24 25 26
13 12 13 13 14 15 17 20 24 27 31 35 39 41 44 46 46 47 46 47 46 45 44 43 42 42 43 42 41 39 38 36 34 33 31 29 29 28 27 26 26 26 27
14 14 14 14 14 14 15 17 19 23 27 30 34 38 41 44 44 46 47 47 47 46 45 44 43 43 42 41 41 41 39 37 36 34 32 32 31 30 29 27 27 27 27
16 16 16 15 15 15 15 16 17 18 21 25 29 33 37 40 42 44 45 46 46 45 43 43 42 41 41 40 40 40 40 39 37 36 34 33 32 30 28 27 27 27 27
18 18 17 17 16 16 16 16 17 18 19 21 23 26 30 34 38 40 42 43 43 44 44 43 42 41 41 42 42 41 40 38 37 35 34 34 32 30 28 27 26 26 26
21 20 19 19 18 18 18 18 18 18 19 20 21 23 25 28 30 33 36 38 39 40 41 42 42 42 41 41 41 42 41 39 38 36 36 34 32 30 28 27 27 26 26
23 23 22 21 20 19 19 19 18 18 19 19 20 21 22 25 26 28 30 33 34 35 37 38 39 39 40 41 40 39 40 40 38 36 35 33 31 29 28 28 27 26 27
26 25 25 23 22 21 20 19 18 18 18 18 19 19 20 22 23 25 26 28 29 30 33 35 36 36 36 38 38 39 40 39 37 35 33 32 30 29 29 28 27 27 27
27 27 26 25 24 22 20 19 18 17 17 17 18 18 19 19 21 22 23 25 26 28 29 30 31 32 32 33 34 35 36 35 34 33 32 31 30 29 28 28 27 26 25
29 29 28 27 26 24 21 19 17 16 15 15 15 16 18 18 18 20 21 23 23 24 26 26 26 27 28 29 30 30 31 31 32 31 30 29 28 28 27 26 25 24 22
31 30 30 29 28 25 23 20 17 13 11 11 12 13 15 16 17 17 19 20 21 22 22 24 25 25 26 27 28 28 28 29 29 29 27 27 27 27 25 25 24 23 21
Wind_Direction
258 255 252 251 249 248 249 248 246 243 239 235 233 233 234 233 229 224 221 218 216 213 204 196 189 183 176 167 159 150 143 138 133 133 132 135 149 155 163 191 223 254 266
255 255 256 255 253 250 249 250 248 244 240 236 234 233 234 234 232 230 227 225 225 224 221 217 213 208 203 198 195 190 181 174 166 155 149 143 157 179 187 215 251 269 276
254 253 253 254 254 252 251 250 247 246 243 238 235 234 235 235 235 233 232 230 229 228 229 230 229 227 224 223 222 220 218 216 210 205 206 210 216 226 244 261 278 288 289
253 252 252 252 253 251 252 252 250 247 246 241 236 236 236 237 237 236 236 234 232 232 233 235 236 236 236 235 235 234 234 235 236 236 239 243 248 255 264 271 278 287 291
251 250 250 250 250 251 252 252 250 249 249 244 238 237 237 238 239 239 239 237 235 234 235 237 239 241 241 242 242 241 242 243 245 247 252 256 258 261 265 272 276 280 285
249 249 248 248 248 248 248 248 248 249 249 246 242 240 239 239 238 238 239 239 238 237 238 239 240 242 243 244 244 245 246 248 250 251 254 258 261 264 266 270 275 279 282
249 248 247 247 247 246 245 245 245 246 248 247 245 244 240 238 236 237 238 239 239 239 240 241 241 242 244 245 246 247 248 249 252 254 256 259 263 267 270 272 276 277 280
248 246 246 246 246 244 243 243 243 243 243 246 246 245 242 239 236 236 238 239 239 239 240 241 242 243 244 245 246 247 249 250 251 254 256 259 264 268 271 274 275 276 277
250 248 246 245 245 244 243 242 243 242 241 242 243 244 244 240 239 237 237 239 240 240 240 240 242 243 244 245 246 247 249 250 251 253 255 258 262 266 270 272 274 274 276
251 249 246 245 244 244 243 243 243 242 241 241 242 242 242 241 239 238 238 238 238 239 240 241 242 243 244 245 247 248 249 250 251 252 254 257 260 263 268 271 272 273 275
255 251 248 246 244 243 242 241 241 241 240 240 240 239 239 239 238 240 239 236 236 236 238 240 240 241 243 245 246 247 249 250 251 252 253 255 258 261 265 269 271 272 274
263 257 252 249 247 245 243 242 241 240 240 239 238 238 238 237 238 238 237 237 236 234 235 237 238 238 240 243 245 246 247 249 250 251 252 253 256 259 263 267 270 272 275
276 267 260 255 251 248 246 243 242 240 240 239 239 238 237 237 235 236 235 237 236 234 235 236 236 237 238 240 243 245 246 247 249 250 252 253 255 257 261 266 268 271 275
295 283 273 265 258 254 249 245 242 241 240 240 238 238 237 236 236 236 236 236 235 234 234 235 236 235 236 239 240 243 244 246 248 248 251 252 254 256 260 263 266 270 274
313 302 290 279 268 260 254 248 245 244 242 240 238 237 237 237 236 235 235 234 234 234 233 234 235 235 236 237 239 240 241 244 246 247 249 250 251 255 259 262 265 270 274
328 316 306 293 281 271 261 253 248 246 244 241 239 238 237 236 235 234 234 234 234 235 234 234 235 235 235 235 236 238 241 243 244 244 246 247 250 255 259 262 266 270 274
335 329 320 309 295 281 270 261 254 249 246 243 240 239 237 237 235 234 233 233 234 234 234 234 235 235 234 234 235 236 238 239 239 241 243 245 250 255 259 263 268 272 275
338 331 324 315 306 295 280 270 264 256 250 246 241 239 238 237 236 235 234 233 233 235 234 233 234 233 233 234 233 234 236 236 237 239 240 244 250 254 258 263 268 272 275
341 334 326 318 310 301 290 278 270 264 257 250 245 240 238 237 236 236 236 235 234 233 232 230 231 233 232 231 231 231 232 233 234 236 238 242 247 252 258 263 268 273 275
347 339 331 323 314 306 297 287 276 270 263 255 248 243 240 238 236 236 236 235 234 232 231 230 229 231 231 230 228 229 230 230 233 234 236 240 245 251 259 264 269 273 276
352 345 338 329 320 312 303 295 285 274 266 258 252 248 243 239 237 236 235 235 234 231 231 230 229 227 228 228 227 228 230 230 232 234 236 240 245 252 257 263 268 272 277
355 349 343 336 328 319 310 301 291 279 270 261 254 251 247 242 239 236 234 232 233 232 232 229 229 228 226 224 224 226 228 228 229 232 235 239 245 251 256 261 267 271 276
357 354 349 343 336 328 319 308 297 284 272 263 256 250 246 243 239 235 232 230 229 230 229 228 225 225 225 225 224 224 225 225 225 229 234 239 244 249 255 260 265 270 272
359 357 354 349 343 337 329 318 304 289 276 264 256 248 243 240 235 232 230 230 229 228 226 225 224 224 223 222 221 221 222 223 226 232 236 239 244 250 255 259 263 266 268
2 0 358 355 351 346 338 329 315 296 279 265 253 245 239 235 231 227 226 226 225 224 225 225 222 220 220 220 222 223 225 226 229 233 238 241 245 249 254 258 260 262 264
5 4 3 1 359 356 351 344 333 313 286 266 248 236 230 228 227 224 222 222 221 220 220 219 220 220 220 220 222 224 227 229 230 234 238 242 246 248 251 253 255 257 259
Height
5866 5867 5869 5870 5872 5874 5876 5877 5879 5881 5883 5885 5886 5888 5890 5892 5893 5895 5896 5898 5899 5900 5901 5902 5903 5904 5905 5906 5906 5907 5908 5908 5909 5909 5910 5911 5911 5912 5912 5913 5913 5913 5914
5859 5861 5862 5864 5866 5867 5869 5871 5873 5875 5878 5880 5882 5884 5886 5888 5890 5892 5894 5896 5897 5898 5900 5901 5902 5903 5904 5905 5906 5907 5907 5908 5909 5909 5910 5910 5911 5911 5912 5912 5912 5913 5913
5851 5853 5855 5857 5859 5861 5863 5865 5867 5869 5871 5874 5876 5878 5881 5883 5885 5888 5890 5892 5894 5896 5897 5899 5900 5902 5903 5904 5905 5906 5907 5907 5908 5908 5909 5910 5910 5911 5911 5911 5911 5911 5912
5842 5844 5847 5849 5851 5853 5856 5858 5860 5863 5865 5867 5870 5873 5875 5878 5880 5883 5886 5888 5891 5893 5894 5896 5898 5899 5901 5902 5903 5904 5905 5906 5907 5907 5908 5908 5909 5909 5910 5910 5910 5910 5910
5832 5835 5838 5840 5843 5845 5848 5851 5853 5855 5857 5859 5862 5866 5869 5872 5875 5878 5881 5883 5886 5888 5890 5893 5894 5896 5898 5899 5901 5902 5903 5904 5905 5906 5906 5907 5907 5908 5908 5908 5909 5909 5908
5822 5824 5827 5830 5833 5836 5840 5843 5845 5847 5850 5852 5855 5859 5862 5865 5868 5871 5874 5878 5881 5883 5886 5888 5890 5892 5894 5896 5897 5899 5900 5901 5902 5903 5904 5905 5905 5906 5906 5906 5906 5906 5906
5812 5815 5817 5820 5823 5826 5830 5833 5836 5839 5842 5845 5848 5850 5854 5857 5861 5864 5868 5871 5874 5877 5880 5883 5885 5888 5890 5891 5893 5895 5896 5898 5899 5900 5901 5902 5902 5903 5903 5904 5904 5904 5904
5802 5805 5807 5810 5813 5816 5820 5823 5826 5830 5834 5837 5839 5842 5845 5850 5853 5857 5860 5863 5867 5870 5874 5877 5880 5882 5884 5886 5888 5890 5892 5894 5895 5897 5898 5898 5899 5900 5900 5901 5901 5901 5901
5792 5794 5797 5800 5803 5806 5810 5813 5817 5821 5824 5827 5831 5834 5838 5842 5845 5849 5852 5856 5859 5863 5867 5870 5873 5876 5879 5881 5883 5885 5887 5889 5890 5892 5893 5894 5895 5896 5896 5897 5897 5897 5897
5783 5785 5787 5790 5793 5796 5800 5803 5806 5810 5814 5818 5822 5826 5830 5833 5837 5841 5844 5848 5851 5855 5859 5863 5866 5870 5872 5875 5877 5879 5882 5884 5885 5887 5888 5890 5891 5892 5892 5893 5893 5893 5893
5775 5777 5779 5781 5784 5787 5790 5793 5796 5800 5804 5808 5812 5816 5820 5824 5828 5832 5835 5839 5843 5847 5851 5855 5859 5863 5866 5868 5871 5873 5876 5878 5880 5882 5883 5885 5886 5887 5888 5888 5888 5889 5889
5769 5770 5771 5773 5775 5777 5780 5783 5786 5790 5794 5798 5802 5806 5810 5815 5819 5823 5827 5831 5834 5839 5843 5847 5851 5855 5858 5861 5864 5867 5870 5872 5874 5876 5878 5879 5881 5882 5883 5883 5884 5884 5884
5764 5764 5764 5765 5766 5768 5770 5773 5776 5779 5783 5787 5792 5796 5800 5805 5809 5813 5817 5822 5825 5829 5834 5838 5843 5847 5851 5854 5857 5860 5863 5866 5868 5870 5872 5874 5875 5876 5877 5878 5879 5879 5879
5760 5759 5758 5758 5758 5759 5760 5763 5765 5769 5773 5777 5780 5785 5789 5794 5799 5803 5808 5812 5816 5821 5825 5830 5834 5839 5843 5846 5850 5853 5856 5859 5861 5864 5866 5868 5869 5871 5872 5873 5873 5874 5874
5757 5756 5754 5753 5752 5752 5753 5754 5756 5759 5762 5766 5770 5774 5778 5783 5788 5793 5798 5803 5808 5812 5817 5822 5826 5830 5834 5838 5842 5845 5849 5852 5854 5857 5859 5861 5863 5865 5866 5867 5867 5868 5868
5756 5753 5751 5749 5747 5746 5746 5747 5748 5750 5752 5755 5759 5763 5767 5772 5777 5782 5787 5792 5797 5802 5807 5812 5816 5820 5825 5829 5833 5837 5841 5844 5847 5850 5852 5855 5857 5858 5860 5861 5861 5862 5862
5754 5751 5748 5746 5744 5742 5741 5741 5741 5742 5744 5746 5749 5753 5756 5761 5766 5771 5776 5781 5786 5791 5797 5802 5806 5811 5815 5820 5825 5829 5833 5836 5839 5843 5845 5848 5850 5851 5853 5854 5855 5856 5856
5752 5749 5746 5743 5740 5738 5737 5736 5735 5735 5736 5737 5740 5743 5746 5751 5755 5760 5765 5770 5775 5781 5786 5792 5797 5801 5806 5811 5815 5820 5824 5828 5832 5835 5838 5840 5843 5844 5846 5847 5848 5849 5849
5751 5747 5744 5740 5737 5735 5733 5731 5730 5729 5729 5730 5731 5734 5737 5741 5745 5749 5754 5759 5765 5770 5776 5781 5787 5791 5796 5801 5806 5811 5815 5820 5823 5827 5830 5833 5835 5837 5839 5840 5841 5842 5842
5749 5745 5741 5737 5733 5731 5728 5726 5725 5724 5723 5723 5724 5726 5728 5731 5735 5739 5744 5749 5754 5760 5765 5771 5777 5782 5787 5792 5797 5802 5807 5811 5815 5819 5822 5825 5827 5830 5832 5833 5835 5835 5836
5748 5743 5738 5734 5730 5726 5723 5721 5719 5718 5717 5717 5718 5719 5721 5723 5726 5730 5735 5740 5744 5750 5755 5761 5767 5772 5778 5782 5788 5793 5798 5802 5806 5811 5814 5817 5820 5823 5825 5826 5828 5828 5828
5746 5741 5736 5730 5726 5721 5718 5715 5713 5712 5711 5711 5712 5713 5714 5717 5719 5723 5727 5731 5736 5741 5746 5752 5758 5763 5768 5774 5779 5784 5789 5794 5799 5803 5806 5810 5813 5816 5818 5820 5820 5821 5822
5745 5739 5733 5728 5722 5717 5712 5709 5706 5705 5704 5705 5705 5707 5708 5710 5713 5716 5720 5724 5729 5733 5739 5744 5750 5755 5760 5765 5770 5775 5780 5785 5790 5794 5798 5802 5805 5808 5811 5812 5813 5814 5815
5744 5738 5731 5725 5719 5713 5708 5704 5700 5698 5698 5698 5699 5700 5702 5705 5707 5711 5715 5718 5722 5727 5732 5738 5743 5747 5752 5757 5762 5767 5772 5777 5782 5787 5791 5795 5798 5801 5803 5805 5806 5807 5808
5744 5737 5730 5723 5717 5710 5704 5699 5695 5692 5691 5691 5692 5694 5697 5700 5703 5706 5710 5713 5717 5721 5725 5730 5735 5740 5745 5751 5756 5761 5765 5770 5775 5779 5784 5787 5790 5793 5796 5798 5799 5801 5802
5744 5737 5730 5723 5715 5708 5702 5696 5690 5687 5685 5686 5687 5689 5692 5695 5698 5702 5705 5709 5713 5717 5721 5726 5730 5735 5740 5744 5749 5754 5759 5764 5768 5773 5777 5781 5784 5787 5789 5791 5793 5795 5796